Starlink 32430

operational
NORAD ID: 62207 Int'l Des: 2024-229 Owner: SPXS Country: US Constellation: starlink
LEOCIRCULAR

Über Starlink 32430

Beschreibung wird geladen...

Live-Position

3D-Globus wird geladen...

Nächste Überflüge

Höhenverlauf

Altitude vs Time

uPlot chart will show altitude changes over time

Zweizeiliger Elementsatz

1 62207U 24229R 25303.00989195 .00020973 00000-0 76907-3 0 9993
2 62207 43.0056 285.4486 0001592 186.8457 173.2373 15.27598145 50615
Epoch: 30. Okt. 2025 • Age: 20 hours

Aktueller Status

Höhe 485.0 km
Geschwindigkeit 7.62 km/s
Subsatellitenpunkt -15.80°S, 139.67°E
Startdatum 4. Dez. 2024
Alter 0.9 years
Typ internet

Technische Details

Klassifizierung Payload
Masse 730.00 kg
Trockenmasse 700.00 kg
Gesamtmasse 730.00 kg
Länge 0.30 m
Durchmesser 4.10 m
Spannweite 29.00 m
Form Box + pan
Hersteller SPXS
Bus-Typ Starlink V2M
Phasenstatus In Orbit
Besitzer/Staat SPXS/US

Große Konstellationen

Loading constellations...